Перигё

Франция     45°10′57″N   0°43′09″E
В апреле 2022 года жителям России запретили посещать сайт meteo.paraplan.net по решению Генеральной прокуратуры. Аудитория сайта уменьшилась в 10 раз. Владельцы сайта не видят смысла в поддержке погодного сервера в таких условиях. Сайт будет закрыт в октябре.
темп.,
°C
ветер,
м/с
пор.,
м/с
влажн.,
%
обл.,
%
осадки,
мм/ч
давл.,
гПа
погр.,
м
3 октября, пн
пн323:00+12с1191100 0.0 102610
02:00+11св1195100 0.0 102612
05:00+10всв119513 0.0 102511
08:00+10всв11957 0.0 102511
11:00+18всв126616 0.0 1024379
14:00+23св12435 0.0 10221173
17:00+24с22396 0.0 10211449
20:00+17ссз11665 0.0 102011
4 октября, вт
вт423:00+14ссв118613 0.0 102111
02:00+12св11910 0.0 102110
05:00+11в11920 0.0 102010
08:00+10вюв11940 0.0 102110
11:00+18юв11650 0.0 1021325
14:00+24з114443 0.0 10211049
17:00+24зсз224099 0.0 10201252
20:00+17ссз11655 0.0 102111
5 октября, ср
ср523:00+14вюв117621 0.0 102110
02:00+13вюв22815 0.0 102117
05:00+12юв228516 0.0 102124
08:00+11юв23884 0.0 102145
11:00+20ююв35526 0.0 1021389
14:00+26ююз33330 0.0 10211072
17:00+27зюз33305 0.0 10201553
20:00+19сз38540 0.0 1023138
6 октября, чт
чт623:00+14с25770 0.0 1026101
02:00+12с22910 0.0 102815
05:00+12ссв24971 0.0 102991
08:00+11с25972 0.0 102994
11:00+18св236592 0.0 1029502
14:00+22с2249100 0.0 10281027
17:00+23ссв2346100 0.0 10261074
20:00+17с2268100 0.0 102623
7 октября, пт
пт723:00+14ссв2281100 0.0 102620
02:00+14всв1183100 0.0 102510
05:00+13в118756 0.0 102410
08:00+12вюв119238 0.0 102411
11:00+20ююв236060 0.0 1024411
14:00+25ююз234530 0.0 10221335
17:00+25зюз224127 0.0 10201634
20:00+18сз116218 0.0 102111